STARLINK-1666, 46357

Orbit data source: Space-Track

STARLINK-1666, 46357 is a payload satellite owned by SpaceX/Seattle (US) in LEO that was launched on Thu, 03 Sep 2020 UTC via an FALCON 9 launch vehicle from the Air Force Eastern Test Range (AFETR). Payload-class satellites include a variety of spacecraft equipped with specific instruments for various scientific and technological missions. These include communications satellites like Starlink; space stations such as the ISS; scientific satellites like the Hubble; Earth observation satellites from companies like Planet Labs, Umbra, and HawkEye 360; GPS; miniature CubeSats for education and research; and military/defense satellites.

Loading next visibility...
Identifier
46357, 2020-062AJ
Orbit
LEO
Country
Flag of USUS
Related business
Manufacturer
SpaceX/Seattle
Mission
Operational Commercial Communications
Bus & Motor
STARLINK, Unknown motor
Mass
260 kg wet, ~248 kg dry
Launch date (UTC)
2020-09-03 (5 years ago)
Launch vehicle
FALCON 9
Launch site
Air Force Eastern Test Range (AFETR)
Object type
Payload
Rocket body
Debris
Shape & HBR
Box + 1 Pan, 10.1 m
Radar Cross Section
13.562 m², Large (>1 m²)

Expand to show TLE details & history
Last TLE update: 14 hours ago

TLE from 14 hours ago
0 STARLINK-1666
1 46357U 20062AJ  25304.80304606  .00006271  00000-0  43970-3 0  9998
2 46357  53.0531 215.2119 0001186  82.5539 277.5585 15.06381301285162
Epoch: 2025-10-31T19:16Z
TLE epoch observation values (Epoch: 2025-10-31T19:16:23.179Z)
Latitude
-0°
Longitude
-114.22692°
Altitude
548.04 km
Speed
7.589 km/s
True Right ascension
14h 20m 50s
True Declination
0° 00' 00"
Sunlit
Object was in daylight at epoch
Visualization orbit readout
Latitude
Unknown
Longitude
Unknown
Altitude
Unknown
Speed
Unknown
Apparent Right ascension
Unknown
Apparent Declination
Unknown
Sunlit
N/A
Visualization observer readout
Local Sidereal Time
04:30:34
Azimuth
Unknown
Elevation
Unknown
Doppler factor
Unknown
Orbital elements
Apogee altitude
548.361 km
Perigee altitude
546.718 km
Semi-major axis
6,925.677 km
Eccentricity
0.00012
Inclination
53.0531°
RAAN
215.2119°
Arg. of periapsis
82.5539°
True anomaly
277.54503°
Mean anomaly
277.5585°
Eccentric anomaly
277.55176°
Mean motion
3.76574 °/min
Orbital period
95.6 mins
BSTAR
0.0004397
Loading maneuver chart data...
Computing Atmospheric mass density...

Documentation

Showing up to 5 results
|